Tracking 28052 objects as of 25-Sep-2023
HD Live streaming from Space Station
objects crossing your sky now

SL-8 DEB

Track SL-8 DEB now!
10-day predictions


NORAD ID: 25085
Int'l Code: 1991-009CX
Perigee: 1,444.3 km
Apogee: 1,723.3 km
Inclination: 74.1 °
Period: 117.7 minutes
Semi major axis: 7954 km
RCS: 0.0159 m2 (small)
Launch date: February 12, 1991
Source: Commonwealth of Independent States (former USSR) (CIS)
Launch site: PLESETSK MISSILE AND SPACE COMPLEX (PKMTR)

Note: This is SATELLITE DEBRIS
Your satellite tracking list
Your tracking list is empty




NASA's NSSDC Master Catalog

Two Line Element Set (TLE):
1 25085U 91009CX  23267.31310845  .00000227  00000-0  21140-2 0  9995
2 25085  74.1119  26.1161 0175357 113.4394 277.0841 12.23652372289062
Source of the keplerian elements: AFSPC